Location: �quirre
(50.4736°N, 2.2351°E)
Time: 05:01:43
(UTC+00:00)

SeaSat 1 - Pass Details

Date: 07 August 2020
Orbit: 744 x 748 km, 108.0° (Epoch: 19 September)

Event Time Altitude Azimuth Distance (km) Brightness Sun altitude
Rises 03:14:15 0° 35° (NE) 3,203 7.5 -10.4°
Reaches altitude 10° 03:16:39 10° 42° (NE) 2,275 6.6 -10.2°
Maximum altitude 03:21:19 41° 113° (ESE) 1,079 3.5 -9.6°
Drops below altitude 10° 03:25:58 10° 183° (S) 2,261 4.5 -9.0°
Enters shadow 03:27:43 - 189° (S) 2,933 5.1 -8.8°
